VAMDRUP current weather conditions

sailwx.info

Wind from 300 at 11 knots

Air temperature 19.0° C
Visibility: greater than 5.4 NM
Dewpoint 11.0° C

Last reported at 2020-Aug-03 13:50 UTC.
Time now 2020-Aug-03 17:25 UTC

Location: N 55°26' E 009°20'.
View on Google Maps.

See reports from other nearby stations

  
Tides and Currents Weather Stations Pressure Air Temp Water Temp Dewpoint Dewpoint Depression Visibility Wind Speed Wind Dir Waves Ship Positions
date/time (UTC)wind fromknots sea level pressurealtimeterstation pressurevisibilityair tempwater tempwave heightnotes
2020-Aug-03 16:50 300 9 18.0
2020-Aug-03 16:20 300 8 19.0
2020-Aug-03 13:50 300 11 5.419.0
2020-Aug-03 12:50 310 7 5.419.0
2020-Aug-03 11:50 280 8 5.419.0
2020-Aug-03 10:50 290 8 5.418.0
2020-Aug-03 09:50 300 6 5.417.0
2020-Aug-03 08:50 280 8 5.417.0
2020-Aug-03 07:50 280 6 5.416.0
2020-Aug-03 06:50 290 6 5.415.0
2020-Aug-03 05:50 300 4 5.413.0
2020-Aug-03 05:20 260 1 13.0
2020-Aug-03 04:50 270 0 11.0
2020-Aug-03 04:20 210 1 10.0
2020-Aug-03 03:50 190 1 10.0
2020-Aug-03 03:20 210 2 10.0
2020-Aug-03 02:50 190 1 10.0
2020-Aug-03 02:20 170 0 10.0
2020-Aug-03 01:50 200 4 11.0
2020-Aug-03 01:20 190 2 11.0
2020-Aug-03 00:50 210 2 11.0
2020-Aug-03 00:20 200 2 11.0
2020-Aug-02 23:50 220 1 11.0
2020-Aug-02 23:20 260 2 12.0
2020-Aug-02 22:50 270 5 12.0
2020-Aug-02 22:20 270 5 13.0
2020-Aug-02 21:50 280 5 13.0
2020-Aug-02 21:20 290 6 13.0
2020-Aug-02 20:50 290 8 14.0
2020-Aug-02 20:20 300 8 15.0
2020-Aug-02 19:50 290 9 16.0
2020-Aug-02 19:20 270 8 16.0
2020-Aug-02 18:50 250 9 16.0
2020-Aug-02 18:20 250 12 17.0
2020-Aug-02 17:50 250 12 17.0
2020-Aug-02 17:20 260 12 19.0
2020-Aug-02 16:50 250 14 19.0
2020-Aug-02 16:20 260 12 19.0
2020-Aug-02 15:50 260 12 19.0
2020-Aug-02 15:20 250 8 19.0
2020-Aug-02 14:50 260 9 20.0
2020-Aug-02 14:20 260 9 20.0
2020-Aug-02 13:50 250 9 19.0
2020-Aug-02 13:20 230 9 19.0
2020-Aug-02 12:50 250 9 19.0
2020-Aug-02 12:20 270 8 19.0
2020-Aug-02 11:50 260 9 19.0
2020-Aug-02 11:20 240 7 20.0
2020-Aug-02 10:50 240 8 19.0
2020-Aug-02 10:20 260 7 18.0
2020-Aug-02 09:50 250 8 18.0
2020-Aug-02 09:20 250 8 17.0
2020-Aug-02 08:50 260 8 17.0
2020-Aug-02 08:20 270 9 17.0
2020-Aug-02 07:50 270 8 17.0
2020-Aug-02 07:20 280 7 16.0
2020-Aug-02 06:50 260 7 16.0
2020-Aug-02 06:20 250 8 16.0
2020-Aug-02 05:50 260 6 16.0
2020-Aug-02 05:20 260 7 16.0
2020-Aug-02 04:50 270 9 16.0
2020-Aug-02 04:20 270 6 16.0
2020-Aug-02 03:50 270 7 16.0
2020-Aug-02 03:20 280 8 16.0
2020-Aug-02 02:50 250 7 16.0
2020-Aug-02 02:20 250 6 16.0
2020-Aug-02 01:50 250 6 17.0
2020-Aug-02 00:50 260 7 17.0
2020-Aug-02 00:20 260 7 17.0
2020-Aug-01 23:50 260 9 17.0
2020-Aug-01 23:20 260 8 17.0
2020-Aug-01 22:50 250 8 17.0
2020-Aug-01 22:20 240 9 17.0
2020-Aug-01 21:50 250 11 17.0
2020-Aug-01 21:20 230 8 17.0
2020-Aug-01 20:50 260 6 17.0
2020-Aug-01 20:20 260 9 18.0
2020-Aug-01 19:50 250 9 18.0
2020-Aug-01 19:20 240 9 19.0
2020-Aug-01 18:50 210 7 21.0
2020-Aug-01 18:20 170 6 21.0
2020-Aug-01 17:50 150 6 22.0
2020-Aug-01 17:20 150 8 22.0